Simultaneous Nadir Overpasses (SNOs) Predictions

Prediction of SNOs between AQUA and TERRA Satellite Orbit:

Table of predicted SNOs for the next 14.0 days since TLE Epoch: 12/31/2022
Index Date (AQUA) Time (AQUA) Lat,Lon (AQUA) SZA (AQUA ) Date (TERRA) Time (TERRA) Lat,Lon (TERRA) SZA (TERRA ) Distance(km) Time Diff (sec)
1 12/31/2022 04:38:53 72.07, 109.58 95.08 12/31/2022 04:37:51 72.10, 109.58 95.10 2.75 62
2 12/31/2022 05:28:18 -72.08, -82.80 84.92 12/31/2022 05:27:15 -72.07, -82.82 84.93 1.51 63
3 12/31/2022 06:17:44 72.05, 84.89 95.06 12/31/2022 06:16:37 72.07, 84.85 95.08 2.70 67
4 12/31/2022 07:07:09 -72.07,-107.48 84.94 12/31/2022 07:06:01 -72.05,-107.54 84.95 2.94 68
5 12/31/2022 07:56:35 72.04, 60.21 95.03 12/31/2022 07:55:23 72.05, 60.12 95.05 3.54 72
6 12/31/2022 08:46:00 -72.05,-132.16 84.96 12/31/2022 08:44:47 -72.03,-132.27 84.98 4.53 73
7 12/31/2022 09:35:23 71.86, 35.81 94.85 12/31/2022 09:34:12 71.87, 35.11 94.86 24.21 71
8 12/31/2022 10:24:47 -71.82,-156.47 85.20 12/31/2022 10:23:36 -71.84,-157.28 85.17 28.08 71
9 12/31/2022 11:14:11 71.68, 11.40 94.66 12/31/2022 11:13:01 71.68, 10.11 94.68 45.21 70
10 12/31/2022 12:03:35 -71.64, 179.12 85.39 12/31/2022 12:02:26 -71.61, 177.63 85.41 52.24 69
11 12/31/2022 12:52:58 71.45, -12.92 94.42 12/31/2022 12:51:51 71.44, -14.97 94.44 72.73 67
12 12/31/2022 13:42:22 -71.41, 154.79 85.62 12/31/2022 13:41:15 -71.42, 152.64 85.59 76.30 67



Historial Predications of SNOs between AQUA and TERRA
